Location: Newark
(13.0000°N, 105.0000°E)
Time: 18:55:39
(UTC+00:00)

OTV 5 (USA 277) - Pass Details

Date: 23 October 2019
Orbit: 310 x 324 km, 54.5° (Epoch: 17 October)

Event Time Altitude Azimuth Distance (km) Brightness Sun altitude
Rises 11:15:13 0° 192° (SSW) 2,028 ? -9.9°
Reaches altitude 10° 11:17:24 10° 176° (S) 1,204 ? -10.5°
Maximum altitude 11:19:33 22° 122° (ESE) 762 ? -11.0°
Enters shadow 11:20:21 19° 95° (E) 838 ? -11.2°
